STARLINK-31359, 58945

Orbit data source: Space-Track

STARLINK-31359, 58945 is a payload satellite owned by SpaceX/Seattle (US) in LEO that was launched on Sat, 10 Feb 2024 UTC via an FALCON 9 launch vehicle from the Air Force Western Test Range (AFWTR). Payload-class satellites include a variety of spacecraft equipped with specific instruments for various scientific and technological missions. These include communications satellites like Starlink; space stations such as the ISS; scientific satellites like the Hubble; Earth observation satellites from companies like Planet Labs, Umbra, and HawkEye 360; GPS; miniature CubeSats for education and research; and military/defense satellites.

Loading next visibility...
Identifier
58945, 2024-027Q
Orbit
LEO
Country
Flag of USUS
Related business
Manufacturer
SpaceX/Seattle
Mission
Operational Commercial Communications
Bus & Motor
STARLINK V2M, Unknown motor
Mass
730 kg wet, ~700 kg dry
Launch date (UTC)
2024-02-10 (2 years ago)
Launch vehicle
FALCON 9
Launch site
Air Force Western Test Range (AFWTR)
Object type
Payload
Rocket body
Debris
Shape & HBR
Box + 2 Pan, 17.7 m
Radar Cross Section
33.884 m², Large (>1 m²)

Expand to show TLE details & history
Last TLE update: 2 days ago

TLE from 2 days ago
0 STARLINK-31359
1 58945U 24027Q   26171.33881030  .00000209  00000-0  19179-4 0  9991
2 58945  53.1598 154.3897 0001354  74.3377 285.7773 15.30207977133596
Epoch: 2026-06-20T08:07Z
TLE epoch observation values (Epoch: 2026-06-20T08:07:53.209Z)
Latitude
-0.00005°
Longitude
123.8631°
Altitude
475.839 km
Speed
7.629 km/s
True Right ascension
10h 17m 33s
True Declination
0° 00' 00"
Sunlit
Object was in daylight at epoch
Visualization orbit readout
Latitude
Unknown
Longitude
Unknown
Altitude
Unknown
Speed
Unknown
Apparent Right ascension
Unknown
Apparent Declination
Unknown
Sunlit
N/A
Visualization observer readout
Local Sidereal Time
23:08:09
Azimuth
Unknown
Elevation
Unknown
Doppler factor
Unknown
Orbital elements
Apogee altitude
476.376 km
Perigee altitude
474.52 km
Semi-major axis
6,853.585 km
Eccentricity
0.00014
Inclination
53.1598°
RAAN
154.3897°
Arg. of periapsis
74.3377°
True anomaly
285.76237°
Mean anomaly
285.7773°
Eccentric anomaly
285.76983°
Mean motion
3.82531 °/min
Orbital period
94.11 mins
BSTAR
0.000019179
Loading maneuver chart data...
Computing Atmospheric mass density...
Loading historical data...
Loading historical data...
Loading historical data...
Loading historical data...
Loading historical data...
Loading historical data...
Loading historical data...

Documentation

Showing up to 5 results
|